^^
Meteo Knjazevac Station Historical Data
 
Daily Summary for May 14, 2021 Units:  Metric    English   Both
Daily Weekly Monthly Yearly Custom
  Current: High: Low: Average:
Temperature: 10.4 °C 12.7 °C 10.3 °C 11.6 °C
Dew Point: 8.5 °C 9.9 °C 8.3 °C 9 °C
Humidity: 88% 88% 81% 84%
Wind Speed: 8km/h 8km/h 0km/h 3.4km/h
Wind Gust: 11.3km/h 14.5km/h - -
WindENE - - SSE
Pressure: 1011.1 hPa 1011.4 hPa 1010.4 hPa -
Precipitation: 0 mm      
Historical Graphs
 
 
Tabular Data for May 14, 2021
Time Temperature Dew Point Pressure Wind Wind Speed Wind Gust Humidity Rainfall Rate (Hourly) solar Conditions
00:00 12.3 °C 9.8 °C 1010.4 hPa West 8 km/h 12.9 km/h 85% 0 mm 0 W/m2
00:10 12.4 °C 9.8 °C 1010.4 hPa West 8 km/h 12.9 km/h 84% 0 mm 0 W/m2
00:20 12.7 °C 9.9 °C 1010.4 hPa WSW 4.8 km/h 14.5 km/h 83% 0 mm 0 W/m2
00:30 12.7 °C 9.9 °C 1010.4 hPa West 3.2 km/h 9.7 km/h 83% 0 mm 0 W/m2
00:40 12.7 °C 9.9 °C 1010.4 hPa West 8 km/h 11.3 km/h 83% 0 mm 0 W/m2
00:50 12.7 °C 9.5 °C 1010.4 hPa WNW 4.8 km/h 9.7 km/h 81% 0 mm 0 W/m2
01:00 12.7 °C 9.5 °C 1010.4 hPa NW 4.8 km/h 8 km/h 81% 0 mm 0 W/m2
01:10 12.4 °C 9.6 °C 1010.4 hPa NNE 1.6 km/h 8 km/h 83% 0 mm 0 W/m2
01:20 12.2 °C 9.6 °C 1010.4 hPa Calm   4.8 km/h 84% 0 mm 0 W/m2
01:30 12.1 °C 9.5 °C 1010.4 hPa WNW 4.8 km/h 11.3 km/h 84% 0 mm 0 W/m2
01:40 12.3 °C 9.4 °C 1010.4 hPa WSW 3.2 km/h 11.3 km/h 83% 0 mm 0 W/m2
01:50 12.3 °C 9.1 °C 1010.4 hPa SW 4.8 km/h 9.7 km/h 81% 0 mm 0 W/m2
02:00 12.4 °C 9.2 °C 1010.4 hPa WSW 1.6 km/h 11.3 km/h 81% 0 mm 0 W/m2
02:10 12.3 °C 9.1 °C 1010.4 hPa West 3.2 km/h 11.3 km/h 81% 0 mm 0 W/m2
02:20 12.3 °C 9.1 °C 1010.4 hPa SW 4.8 km/h 11.3 km/h 81% 0 mm 0 W/m2
02:30 12.3 °C 9.1 °C 1010.4 hPa WSW 1.6 km/h 8 km/h 81% 0 mm 0 W/m2
02:40 12.2 °C 9.1 °C 1010.4 hPa North 3.2 km/h 4.8 km/h 81% 0 mm 0 W/m2
02:50 12 °C 9.2 °C 1010.4 hPa NNE 3.2 km/h 11.3 km/h 83% 0 mm 0 W/m2
03:00 11.7 °C 8.9 °C 1010.7 hPa Calm   4.8 km/h 83% 0 mm 0 W/m2
03:10 11.6 °C 9 °C 1010.7 hPa Calm   4.8 km/h 84% 0 mm 0 W/m2
03:20 11.5 °C 8.9 °C 1010.7 hPa NE 1.6 km/h 12.9 km/h 84% 0 mm 0 W/m2
03:30 11.4 °C 8.8 °C 1010.7 hPa NNE 3.2 km/h 8 km/h 84% 0 mm 0 W/m2
03:40 11.2 °C 8.8 °C 1010.7 hPa NNE 1.6 km/h 4.8 km/h 85% 0 mm 0 W/m2
03:50 11.1 °C 8.7 °C 1010.7 hPa NNE 4.8 km/h 8 km/h 85% 0 mm 0 W/m2
04:00 11 °C 8.6 °C 1010.7 hPa North 3.2 km/h 6.4 km/h 85% 0 mm 0 W/m2
04:10 10.9 °C 8.5 °C 1010.7 hPa NNE 1.6 km/h 4.8 km/h 85% 0 mm 0 W/m2
04:20 10.8 °C 8.6 °C 1010.7 hPa NE 3.2 km/h 9.7 km/h 86% 0 mm 0 W/m2
04:30 10.7 °C 8.5 °C 1010.7 hPa ENE 1.6 km/h 4.8 km/h 86% 0 mm 0 W/m2
04:40 10.7 °C 8.4 °C 1011.1 hPa Calm   6.4 km/h 86% 0 mm 0 W/m2
04:50 10.6 °C 8.3 °C 1011.1 hPa NE 4.8 km/h 8 km/h 86% 0 mm 0 W/m2
05:00 10.5 °C 8.3 °C 1011.1 hPa NE 1.6 km/h 8 km/h 86% 0 mm 0 W/m2
05:10 10.4 °C 8.5 °C 1011.1 hPa NE 8 km/h 11.3 km/h 88% 0 mm 4 W/m2
05:20 10.3 °C 8.4 °C 1011.1 hPa NE 1.6 km/h 8 km/h 88% 0 mm 11 W/m2
05:30 10.3 °C 8.4 °C 1011.4 hPa Calm   4.8 km/h 88% 0 mm 19 W/m2
05:40 10.3 °C 8.4 °C 1011.4 hPa ENE 1.6 km/h 8 km/h 88% 0 mm 25 W/m2
05:50 10.4 °C 8.5 °C 1011.1 hPa ENE 8 km/h 11.3 km/h 88% 0 mm 32 W/m2
Knjazevac, Serbia
Compliments of Weather Underground - 2 mb